TimeEDT,TemperatureF,Dew PointF,Humidity,Sea Level PressureIn,VisibilityMPH,Wind Direction,Wind SpeedMPH,Gust SpeedMPH,PrecipitationIn,Events,Conditions,WindDirDegrees,DateUTC
12:15 AM,63.1,56.5,79,30.04,10.0,West,4.6,-,N/A,,Clear,280,2012-10-11 04:15:00
12:35 AM,63.5,56.8,79,30.05,10.0,West,5.8,-,N/A,,Clear,270,2012-10-11 04:35:00
12:55 AM,63.1,57.0,80,30.05,10.0,West,4.6,-,N/A,,Clear,270,2012-10-11 04:55:00
1:15 AM,63.1,57.4,81,30.05,10.0,West,6.9,-,N/A,,Clear,280,2012-10-11 05:15:00
1:35 AM,63.3,57.4,81,30.06,10.0,WNW,4.6,-,N/A,,Clear,290,2012-10-11 05:35:00
1:55 AM,62.8,55.9,78,30.07,10.0,WNW,4.6,-,N/A,,Clear,300,2012-10-11 05:55:00
2:15 AM,62.1,54.0,75,30.07,10.0,NW,8.1,-,N/A,,Clear,320,2012-10-11 06:15:00
2:35 AM,61.5,51.4,69,30.07,10.0,NNW,5.8,-,N/A,,Clear,330,2012-10-11 06:35:00
2:55 AM,60.4,50.7,70,30.08,10.0,NNW,3.5,-,N/A,,Clear,330,2012-10-11 06:55:00
3:15 AM,59.5,51.6,75,30.08,10.0,NNW,4.6,-,N/A,,Clear,340,2012-10-11 07:15:00
3:35 AM,60.4,52.7,76,30.08,10.0,North,8.1,17.3,N/A,,Clear,10,2012-10-11 07:35:00
3:55 AM,61.7,49.5,64,30.09,10.0,North,11.5,19.6,N/A,,Clear,360,2012-10-11 07:55:00
4:15 AM,61.5,48.0,61,30.09,10.0,North,11.5,18.4,N/A,,Clear,360,2012-10-11 08:15:00
4:35 AM,61.5,50.2,66,30.10,10.0,North,8.1,-,N/A,,Scattered Clouds,10,2012-10-11 08:35:00
4:55 AM,60.8,49.3,66,30.11,10.0,North,9.2,20.7,N/A,,Scattered Clouds,10,2012-10-11 08:55:00
5:15 AM,60.4,48.2,64,30.12,10.0,North,10.4,20.7,N/A,,Scattered Clouds,10,2012-10-11 09:15:00
5:35 AM,60.1,47.3,63,30.14,10.0,North,11.5,18.4,N/A,,Clear,10,2012-10-11 09:35:00
5:55 AM,59.9,46.9,62,30.14,10.0,North,9.2,24.2,N/A,,Clear,10,2012-10-11 09:55:00
6:15 AM,59.7,46.6,62,30.15,10.0,North,9.2,21.9,N/A,,Clear,10,2012-10-11 10:15:00
6:35 AM,59.5,45.7,60,30.16,10.0,NNE,10.4,19.6,N/A,,Clear,30,2012-10-11 10:35:00
6:55 AM,59.4,44.8,58,30.17,10.0,North,9.2,23.0,N/A,,Clear,360,2012-10-11 10:55:00
7:15 AM,59.2,44.1,57,30.18,10.0,NNE,8.1,18.4,N/A,,Clear,20,2012-10-11 11:15:00
7:35 AM,59.0,43.7,57,30.19,10.0,North,9.2,18.4,N/A,,Clear,10,2012-10-11 11:35:00
7:55 AM,59.4,43.9,57,30.20,10.0,North,10.4,18.4,N/A,,Clear,10,2012-10-11 11:55:00
8:15 AM,59.7,43.3,55,30.21,10.0,NNE,6.9,18.4,N/A,,Clear,20,2012-10-11 12:15:00
8:35 AM,60.3,42.8,53,30.21,10.0,NNE,8.1,16.1,N/A,,Clear,20,2012-10-11 12:35:00
8:55 AM,60.8,43.0,52,30.22,10.0,North,10.4,-,N/A,,Clear,10,2012-10-11 12:55:00
9:15 AM,61.3,44.2,53,30.23,10.0,North,10.4,16.1,N/A,,Clear,10,2012-10-11 13:15:00
9:35 AM,61.7,44.1,52,30.24,10.0,North,9.2,16.1,N/A,,Clear,10,2012-10-11 13:35:00
9:55 AM,61.7,43.7,52,30.25,10.0,North,11.5,16.1,N/A,,Clear,10,2012-10-11 13:55:00
10:15 AM,61.7,43.3,51,30.25,10.0,North,8.1,17.3,N/A,,Clear,10,2012-10-11 14:15:00
10:35 AM,61.9,43.9,52,30.26,10.0,North,10.4,18.4,N/A,,Clear,10,2012-10-11 14:35:00
10:55 AM,62.2,44.2,52,30.26,10.0,North,9.2,16.1,N/A,,Clear,10,2012-10-11 14:55:00
11:15 AM,62.8,44.6,51,30.26,10.0,North,6.9,16.1,N/A,,Clear,10,2012-10-11 15:15:00
11:35 AM,62.8,44.2,51,30.26,10.0,North,11.5,18.4,N/A,,Clear,10,2012-10-11 15:35:00
11:55 AM,62.6,44.4,51,30.27,10.0,NNE,6.9,16.1,N/A,,Clear,20,2012-10-11 15:55:00
12:15 PM,62.8,44.4,51,30.27,10.0,NNE,8.1,20.7,N/A,,Clear,30,2012-10-11 16:15:00
12:35 PM,62.4,44.4,52,30.27,10.0,North,9.2,17.3,N/A,,Clear,10,2012-10-11 16:35:00
12:55 PM,62.2,44.4,52,30.26,10.0,NNE,8.1,16.1,N/A,,Clear,20,2012-10-11 16:55:00
1:15 PM,62.6,44.4,51,30.25,10.0,NNE,8.1,-,N/A,,Clear,20,2012-10-11 17:15:00
1:55 PM,62.1,43.3,50,30.25,10.0,North,6.9,-,N/A,,Clear,10,2012-10-11 17:55:00
2:15 PM,62.1,44.1,52,30.24,10.0,NNE,6.9,-,N/A,,Clear,20,2012-10-11 18:15:00
2:35 PM,61.7,44.6,53,30.25,10.0,NNE,5.8,-,N/A,,Clear,20,2012-10-11 18:35:00
2:55 PM,61.5,44.6,54,30.25,10.0,NE,5.8,-,N/A,,Clear,50,2012-10-11 18:55:00
3:15 PM,61.5,44.1,53,30.25,10.0,NE,3.5,-,N/A,,Clear,50,2012-10-11 19:15:00
3:35 PM,61.3,44.6,54,30.24,10.0,North,4.6,-,N/A,,Clear,10,2012-10-11 19:35:00
3:55 PM,61.2,44.2,54,30.23,10.0,NE,5.8,-,N/A,,Clear,40,2012-10-11 19:55:00
4:15 PM,60.6,44.2,55,30.23,10.0,NNE,4.6,-,N/A,,Clear,30,2012-10-11 20:15:00
4:55 PM,60.1,44.2,56,30.23,10.0,Calm,Calm,-,N/A,,Clear,0,2012-10-11 20:55:00
5:15 PM,59.7,44.4,57,30.23,10.0,Calm,Calm,-,N/A,,Clear,0,2012-10-11 21:15:00
5:35 PM,59.2,45.0,59,30.24,10.0,Calm,Calm,-,N/A,,Clear,0,2012-10-11 21:35:00
6:15 PM,57.4,45.3,64,30.23,10.0,Calm,Calm,-,N/A,,Clear,0,2012-10-11 22:15:00
6:35 PM,55.9,45.0,67,30.23,10.0,Calm,Calm,-,N/A,,Clear,0,2012-10-11 22:35:00
6:55 PM,54.5,45.0,70,30.23,10.0,Calm,Calm,-,N/A,,Clear,0,2012-10-11 22:55:00
7:35 PM,53.4,45.0,73,30.24,10.0,Calm,Calm,-,N/A,,Clear,0,2012-10-11 23:35:00
7:55 PM,53.4,44.8,73,30.23,10.0,Calm,Calm,-,N/A,,Clear,0,2012-10-11 23:55:00
8:15 PM,53.1,44.8,73,30.24,10.0,Calm,Calm,-,N/A,,Clear,0,2012-10-12 00:15:00
8:35 PM,53.6,44.8,72,30.24,10.0,Calm,Calm,-,N/A,,Clear,0,2012-10-12 00:35:00
9:15 PM,53.8,45.0,72,30.25,10.0,Calm,Calm,-,N/A,,Clear,0,2012-10-12 01:15:00
9:35 PM,54.3,44.8,70,30.25,10.0,Calm,Calm,-,N/A,,Clear,0,2012-10-12 01:35:00
9:55 PM,54.3,44.8,70,30.25,10.0,Calm,Calm,-,N/A,,Clear,0,2012-10-12 01:55:00
10:15 PM,54.9,44.4,68,30.25,10.0,Calm,Calm,-,N/A,,Clear,0,2012-10-12 02:15:00
10:55 PM,55.8,45.1,67,30.24,10.0,Calm,Calm,-,N/A,,Clear,0,2012-10-12 02:55:00
11:15 PM,55.2,45.3,69,30.24,10.0,Calm,Calm,-,N/A,,Clear,0,2012-10-12 03:15:00
11:55 PM,53.8,45.5,74,30.23,10.0,Calm,Calm,-,N/A,,Clear,0,2012-10-12 03:55:00